Wind_Speed
7 7 7 7 7 6 7 7 7 7 8 8 8 9 9 9 10 10 10 11 11 12 12 12 13 14 15 15 15 15 16 16 16 17 17 18 18 17 17 17 17 17 17
7 7 7 7 7 7 7 7 7 8 8 8 8 8 9 10 10 10 10 11 11 12 12 12 12 12 13 14 13 14 14 16 16 17 18 18 19 17 17 17 17 17 17
6 6 6 7 7 7 7 7 7 8 8 8 8 9 9 10 10 10 10 10 11 11 11 11 11 11 11 12 13 13 13 13 14 15 16 17 17 17 17 16 16 16 16
5 6 6 6 6 6 6 7 7 7 8 8 8 9 9 9 9 9 10 10 10 10 10 10 10 10 10 10 11 12 12 12 13 14 14 14 14 14 14 15 15 15 15
5 5 5 5 6 6 6 6 7 7 8 8 8 9 9 8 8 9 10 10 9 9 10 10 10 11 10 10 10 11 11 12 12 13 12 12 12 12 13 14 15 15 15
5 4 4 5 5 4 5 6 6 7 8 8 8 9 9 8 9 9 9 9 9 9 10 10 10 10 10 10 10 10 10 10 11 12 12 12 12 12 13 14 15 15 15
5 5 5 6 5 5 5 6 6 7 7 8 8 8 8 8 8 9 8 8 8 9 8 9 9 9 10 9 10 10 11 11 12 12 12 12 12 12 13 14 15 15 15
5 5 6 6 6 6 7 7 7 8 7 7 7 8 8 8 8 8 8 8 8 8 8 8 8 9 9 10 10 10 10 11 12 12 12 12 13 14 14 15 15 15 15
6 6 6 6 6 6 7 7 7 8 7 7 7 7 8 8 8 8 8 7 7 7 7 8 8 8 9 9 10 10 9 10 11 12 12 12 13 14 14 14 14 15 16
6 6 6 6 6 6 7 7 7 7 7 7 8 8 8 8 7 7 7 7 7 7 8 8 9 9 8 9 10 9 9 10 11 11 11 12 12 12 13 13 14 14 15
7 7 7 7 7 7 7 7 7 7 7 7 7 8 8 8 8 7 7 7 7 8 8 8 9 9 9 10 11 10 10 11 11 11 11 11 11 11 11 12 12 13 14
8 8 8 8 8 8 8 8 8 8 8 8 8 8 8 8 8 8 8 8 8 8 8 9 10 10 11 11 12 11 11 11 11 11 10 10 11 11 12 13 13 13 13
9 9 9 9 9 9 9 10 10 9 9 9 9 9 9 9 9 9 8 8 9 9 9 10 11 10 10 11 12 12 11 11 11 11 11 11 11 12 12 13 13 13 13
9 9 10 10 10 11 11 11 11 10 10 10 10 10 10 10 10 10 9 9 10 10 11 11 11 10 10 10 11 11 12 12 12 12 12 12 12 13 13 13 14 14 14
11 10 11 11 11 11 12 12 13 12 12 12 12 11 11 11 12 12 11 11 12 12 12 11 11 11 11 11 12 12 13 13 13 13 13 14 14 14 14 14 14 14 15
11 11 11 11 11 12 13 13 13 13 13 13 13 13 13 12 12 13 13 13 13 13 13 13 13 13 13 13 13 13 13 14 14 14 15 15 14 14 14 15 15 15 16
12 12 12 13 13 13 13 13 13 14 14 14 14 14 14 15 15 15 15 15 14 14 14 14 14 15 15 15 14 14 15 15 15 15 16 15 15 16 16 16 17 17 18
12 12 12 13 13 13 12 12 12 13 14 14 14 15 15 15 15 16 16 16 16 16 16 16 15 16 16 16 16 16 16 17 17 17 17 17 17 18 18 18 19 19 19
13 13 13 14 14 14 14 14 14 14 14 15 15 16 16 17 17 17 17 17 18 18 18 18 17 18 18 18 18 18 18 18 18 18 18 19 19 19 20 20 20 20 21
15 15 15 16 15 16 16 16 16 16 16 17 17 17 18 18 19 19 19 19 19 19 19 19 19 19 19 20 20 20 20 19 20 20 20 20 21 21 21 21 21 21 22
17 17 17 17 17 17 18 18 18 18 18 18 19 19 19 20 20 20 20 20 20 20 21 21 21 21 21 21 21 22 22 21 21 21 22 22 22 22 23 22 22 22 23
18 18 18 18 19 18 18 19 19 19 19 19 19 20 20 21 21 21 21 21 22 22 22 23 23 22 22 22 23 23 23 23 23 23 23 24 24 23 23 23 24 24 24
19 19 19 19 19 19 20 20 21 21 20 20 20 21 21 22 22 22 22 22 22 23 23 24 24 24 23 24 24 24 24 23 23 24 24 24 24 24 24 23 24 24 25
20 21 21 20 20 21 21 22 22 22 22 22 23 22 22 23 23 23 23 23 24 24 24 25 25 24 24 24 24 24 24 24 24 23 24 23 23 23 22 23 24 25 25
21 22 22 21 21 22 22 22 23 23 23 23 23 24 24 24 24 24 24 25 25 25 25 25 25 25 25 25 26 25 25 25 25 24 25 25 24 23 23 23 24 25 26
22 23 22 22 23 23 23 23 24 24 24 24 24 24 24 25 25 25 26 26 26 26 26 26 26 26 27 27 27 26 26 26 26 25 25 25 24 24 24 24 25 26 26
Wind_Direction
274 278 279 272 270 271 274 271 269 273 272 274 277 276 277 281 281 281 282 281 280 281 284 282 279 275 272 271 270 267 266 266 267 268 266 266 264 266 265 263 261 261 262
277 273 276 274 271 272 275 274 273 274 276 275 278 282 281 281 282 285 285 287 287 284 283 284 283 279 272 266 268 268 269 269 269 268 270 269 266 266 265 262 261 263 262
281 276 277 274 272 273 274 274 273 275 278 278 279 281 284 289 286 285 286 290 289 285 281 282 280 280 280 275 273 276 278 278 278 279 276 272 267 263 261 261 260 263 263
279 280 282 281 278 278 275 273 275 278 279 279 281 282 284 289 289 288 290 292 289 286 286 285 282 282 286 284 286 286 287 287 285 283 284 280 270 263 259 259 261 265 267
280 282 284 289 287 284 282 278 279 280 284 287 288 287 288 289 292 296 297 293 292 290 290 288 286 288 289 287 285 288 290 287 286 285 287 284 276 267 264 266 267 269 270
288 293 291 296 293 293 290 284 282 284 287 289 287 288 291 291 293 297 299 297 292 291 290 290 290 292 291 290 287 286 287 289 289 288 288 283 277 272 270 271 271 272 273
304 303 301 301 300 297 297 289 286 293 295 296 295 295 294 296 297 298 299 299 296 295 293 292 293 293 293 294 291 287 286 287 290 289 289 286 279 276 273 273 272 273 275
298 296 297 302 302 299 297 296 295 297 298 298 301 301 301 300 298 300 299 299 296 296 296 297 297 295 296 298 297 292 289 288 290 291 286 285 283 280 276 274 271 271 273
299 292 295 297 298 301 303 299 300 301 302 304 305 307 306 304 300 300 299 300 299 296 298 301 299 300 301 300 301 295 295 298 296 296 294 289 284 280 278 276 274 272 271
296 292 292 291 293 297 300 299 301 301 304 307 311 307 307 305 305 305 299 298 301 300 300 301 296 297 298 300 305 301 305 310 305 302 306 304 294 283 282 281 279 275 275
296 294 289 288 288 292 296 299 300 298 301 304 306 304 303 304 307 303 303 302 300 297 299 299 297 296 296 301 306 302 302 309 310 306 308 311 310 299 294 290 286 282 282
294 294 292 289 285 287 288 291 293 294 297 297 299 302 300 299 302 301 300 299 297 299 299 297 298 295 294 296 299 300 303 305 306 307 306 307 307 305 300 298 294 291 290
294 293 291 288 284 284 286 289 290 289 291 294 296 297 295 292 293 294 295 296 295 297 301 302 302 298 296 296 298 300 302 303 302 302 304 305 305 305 303 298 296 293 291
295 292 290 288 286 285 284 286 286 282 287 289 290 293 293 291 290 291 290 292 294 297 299 300 301 301 299 298 301 303 303 303 299 300 302 302 302 304 306 302 297 293 291
292 289 289 289 287 287 286 285 284 280 280 284 287 290 291 288 290 290 291 289 290 291 295 294 293 296 296 298 299 300 301 301 302 300 299 300 301 303 304 304 301 297 294
292 290 287 288 290 289 287 287 285 281 279 280 282 287 288 285 286 292 292 289 286 287 287 286 286 286 289 292 293 294 298 299 299 300 299 298 299 301 302 301 301 299 296
291 290 286 285 288 289 289 289 285 280 280 280 280 283 285 286 289 293 292 287 284 284 284 284 286 287 289 290 291 292 293 292 292 294 297 298 299 302 303 301 300 300 300
292 291 288 287 289 289 288 290 290 286 284 283 281 282 286 287 289 291 291 288 286 284 284 283 284 286 287 287 286 286 288 289 290 292 293 295 297 298 300 299 299 299 299
292 292 291 290 290 288 287 287 289 288 286 284 283 282 284 284 286 287 286 286 287 285 285 283 282 282 285 285 285 285 288 289 288 289 290 292 294 295 296 297 298 298 298
293 294 293 292 290 288 286 285 285 285 284 282 283 283 283 284 283 285 285 285 286 285 284 282 282 283 285 286 287 288 289 288 288 289 290 291 292 293 294 294 294 295 296
293 294 292 291 288 288 287 285 285 285 284 282 281 282 283 284 283 283 284 285 285 285 284 283 283 283 285 287 286 287 288 289 289 289 290 290 291 291 292 293 295 295 296
293 293 292 291 290 289 287 286 285 285 284 283 282 282 283 284 283 282 283 284 286 285 285 284 283 284 286 287 286 286 287 287 287 288 289 288 288 289 290 291 293 295 295
293 292 292 292 292 289 288 287 287 285 285 284 283 282 282 283 283 282 284 285 286 286 285 285 284 282 284 286 286 288 289 289 290 289 290 290 289 289 290 290 293 295 296
291 292 292 292 291 291 288 286 286 285 285 285 284 283 282 282 282 281 284 285 287 288 287 286 284 283 283 286 286 288 289 290 290 290 291 293 292 292 292 291 292 294 297
291 291 291 292 291 290 288 286 285 284 284 285 285 283 282 282 282 282 282 284 285 285 285 285 283 283 284 287 288 288 287 289 290 291 291 292 291 291 292 292 292 294 296
290 292 291 292 291 289 289 286 283 283 283 283 283 284 284 283 283 283 283 283 284 284 283 283 281 282 284 286 287 288 287 287 288 289 289 289 289 289 291 292 292 293 295
Height
5860 5860 5860 5860 5860 5861 5861 5861 5862 5862 5862 5862 5863 5863 5863 5863 5863 5863 5863 5863 5863 5862 5862 5862 5862 5862 5862 5862 5861 5862 5862 5862 5862 5862 5862 5862 5863 5863 5864 5864 5865 5866 5867
5858 5858 5859 5859 5859 5859 5859 5860 5860 5860 5860 5861 5861 5861 5861 5861 5861 5861 5861 5860 5860 5860 5860 5859 5859 5859 5858 5858 5858 5858 5858 5859 5858 5858 5858 5857 5857 5858 5859 5860 5861 5862 5863
5857 5857 5857 5858 5858 5858 5858 5858 5858 5859 5859 5859 5859 5859 5859 5858 5858 5858 5858 5858 5858 5857 5857 5857 5856 5856 5856 5855 5855 5855 5855 5855 5854 5854 5853 5852 5851 5852 5855 5856 5857 5858 5859
5856 5856 5856 5856 5856 5857 5857 5857 5857 5857 5857 5857 5857 5857 5857 5856 5856 5856 5856 5856 5855 5855 5855 5855 5854 5854 5854 5853 5853 5853 5852 5852 5851 5851 5849 5847 5845 5847 5850 5852 5854 5855 5855
5855 5855 5855 5855 5855 5855 5855 5856 5856 5856 5856 5856 5856 5856 5855 5855 5855 5854 5854 5853 5853 5853 5853 5852 5852 5852 5851 5851 5851 5850 5850 5849 5849 5848 5847 5845 5843 5845 5847 5849 5850 5851 5852
5854 5854 5854 5854 5854 5854 5854 5854 5854 5854 5854 5854 5854 5854 5853 5853 5853 5852 5852 5851 5851 5851 5850 5850 5850 5849 5849 5849 5848 5848 5848 5847 5846 5846 5845 5844 5844 5844 5845 5846 5847 5847 5848
5853 5853 5853 5853 5853 5853 5853 5853 5853 5853 5853 5853 5852 5852 5852 5851 5851 5851 5850 5849 5849 5848 5848 5848 5847 5847 5847 5846 5846 5846 5845 5845 5844 5844 5843 5842 5842 5842 5842 5843 5843 5844 5844
5852 5852 5852 5852 5852 5852 5852 5852 5851 5851 5851 5851 5851 5850 5850 5850 5849 5849 5848 5847 5847 5846 5846 5846 5845 5845 5845 5844 5844 5843 5843 5842 5841 5841 5840 5839 5839 5838 5838 5839 5839 5840 5840
5851 5851 5851 5851 5851 5851 5850 5850 5850 5850 5849 5849 5849 5849 5849 5848 5848 5847 5846 5846 5845 5845 5845 5844 5844 5844 5843 5842 5842 5841 5841 5840 5839 5838 5837 5835 5835 5834 5835 5835 5836 5836 5836
5850 5850 5849 5849 5849 5849 5849 5849 5848 5848 5848 5848 5847 5847 5847 5847 5847 5846 5845 5844 5844 5844 5843 5843 5842 5842 5841 5841 5840 5839 5839 5838 5837 5835 5834 5832 5831 5830 5831 5831 5832 5832 5832
5848 5848 5848 5847 5847 5847 5847 5847 5847 5846 5846 5846 5846 5845 5845 5845 5844 5844 5844 5843 5843 5842 5842 5841 5841 5840 5840 5839 5838 5837 5836 5835 5835 5833 5832 5830 5828 5828 5828 5828 5828 5828 5829
5847 5846 5846 5846 5845 5845 5845 5845 5845 5845 5845 5844 5844 5843 5843 5843 5842 5842 5842 5842 5841 5840 5840 5839 5839 5838 5838 5837 5836 5835 5834 5833 5832 5831 5830 5828 5827 5826 5826 5826 5825 5825 5825
5844 5844 5844 5844 5843 5843 5843 5843 5843 5843 5842 5842 5842 5841 5841 5841 5841 5841 5840 5840 5839 5839 5838 5837 5837 5836 5835 5835 5834 5833 5832 5831 5830 5829 5828 5826 5825 5825 5824 5823 5823 5822 5822
5842 5842 5841 5841 5841 5841 5840 5840 5840 5840 5840 5840 5840 5839 5839 5839 5839 5838 5838 5838 5837 5837 5836 5835 5835 5834 5833 5832 5832 5831 5830 5829 5827 5826 5825 5824 5823 5822 5821 5820 5820 5819 5818
5839 5839 5838 5838 5838 5837 5837 5837 5837 5837 5837 5837 5837 5836 5836 5836 5836 5836 5835 5835 5835 5834 5834 5833 5832 5831 5830 5830 5829 5828 5827 5826 5825 5823 5822 5821 5820 5819 5818 5817 5816 5815 5815
5836 5835 5835 5835 5834 5834 5834 5834 5834 5834 5834 5834 5833 5833 5833 5833 5833 5832 5832 5831 5831 5831 5830 5830 5829 5828 5828 5827 5826 5825 5824 5823 5822 5820 5819 5818 5817 5816 5815 5813 5812 5811 5810
5832 5832 5832 5831 5831 5831 5830 5830 5830 5830 5830 5830 5830 5830 5830 5829 5829 5828 5828 5828 5827 5827 5826 5826 5825 5824 5824 5823 5823 5822 5820 5819 5818 5817 5816 5814 5813 5812 5811 5809 5808 5807 5805
5829 5828 5828 5828 5828 5827 5827 5827 5826 5826 5826 5826 5826 5826 5826 5825 5825 5825 5824 5824 5823 5823 5822 5822 5821 5820 5819 5819 5818 5817 5816 5815 5814 5812 5811 5810 5809 5807 5806 5805 5803 5802 5800
5825 5825 5824 5824 5824 5823 5823 5823 5823 5822 5822 5822 5822 5821 5821 5821 5821 5820 5820 5819 5819 5818 5817 5817 5816 5816 5815 5814 5813 5812 5811 5810 5809 5807 5806 5805 5803 5802 5800 5799 5797 5796 5794
5821 5821 5820 5820 5819 5819 5818 5818 5818 5818 5817 5817 5817 5817 5816 5816 5815 5815 5815 5814 5813 5813 5812 5812 5811 5810 5809 5808 5807 5806 5805 5804 5803 5802 5800 5799 5797 5796 5794 5793 5791 5790 5788
5817 5816 5816 5815 5815 5814 5813 5813 5813 5812 5812 5812 5811 5811 5811 5810 5809 5809 5809 5808 5808 5807 5806 5806 5805 5804 5803 5802 5801 5800 5799 5798 5797 5795 5794 5792 5791 5789 5788 5786 5785 5783 5781
5812 5811 5811 5810 5809 5809 5808 5808 5807 5807 5806 5806 5806 5805 5805 5804 5804 5803 5803 5803 5802 5801 5800 5799 5798 5797 5796 5795 5794 5793 5792 5790 5790 5789 5786 5785 5783 5782 5781 5779 5777 5776 5774
5807 5806 5805 5804 5804 5803 5802 5802 5801 5800 5800 5800 5800 5799 5799 5798 5798 5797 5797 5796 5795 5794 5793 5792 5791 5790 5789 5787 5786 5785 5784 5782 5781 5780 5778 5777 5776 5774 5773 5771 5770 5768 5766
5802 5801 5800 5799 5798 5797 5796 5796 5795 5794 5794 5793 5793 5793 5792 5791 5791 5790 5790 5789 5788 5787 5785 5784 5783 5782 5781 5779 5778 5777 5776 5775 5774 5772 5771 5769 5768 5767 5766 5764 5762 5761 5759
5796 5795 5794 5793 5792 5791 5790 5789 5789 5788 5787 5787 5786 5786 5785 5784 5783 5783 5782 5782 5781 5779 5777 5776 5775 5774 5773 5771 5770 5769 5768 5767 5766 5765 5764 5762 5761 5760 5758 5757 5755 5753 5751
5790 5789 5788 5787 5786 5785 5784 5783 5782 5781 5780 5780 5779 5778 5777 5776 5775 5774 5774 5773 5772 5771 5770 5768 5767 5766 5765 5764 5762 5761 5760 5759 5758 5757 5756 5754 5753 5752 5751 5749 5747 5745 5743